Time,TemperatureF,DewpointF,PressureIn,WindDirection,WindDirectionDegrees,WindSpeedMPH,WindSpeedGustMPH,Humidity,HourlyPrecipIn,Conditions,Clouds,dailyrainin,SolarRadiationWatts/m^2,SoftwareType,DateUTC
2013-01-16 00:02:00,9.3,6.7,30.64,SSW,193,7.0,8.0,89,0.00,,,0.00,0,Wunderground v.1.15,2013-01-16 07:02:00,
2013-01-16 00:08:00,9.7,7.1,30.64,SSW,193,7.0,8.0,89,0.00,,,0.00,0,Wunderground v.1.15,2013-01-16 07:08:00,
2013-01-16 00:14:00,10.7,8.3,30.64,SSW,193,6.0,7.0,90,0.00,,,0.00,0,Wunderground v.1.15,2013-01-16 07:14:00,
2013-01-16 00:20:00,11.2,8.8,30.64,SSW,193,4.0,4.0,90,0.00,,,0.00,0,Wunderground v.1.15,2013-01-16 07:20:00,
2013-01-16 00:26:00,11.5,9.1,30.64,SSW,193,1.0,7.0,90,0.00,,,0.00,0,Wunderground v.1.15,2013-01-16 07:26:00,
2013-01-16 00:32:00,11.7,9.3,30.64,SSW,193,1.0,7.0,90,0.00,,,0.00,0,Wunderground v.1.15,2013-01-16 07:32:00,
2013-01-16 00:38:00,12.0,9.6,30.63,SSW,193,1.0,7.0,90,0.00,,,0.00,0,Wunderground v.1.15,2013-01-16 07:38:00,
2013-01-16 00:44:00,12.4,10.0,30.64,SSW,193,1.0,7.0,90,0.00,,,0.00,0,Wunderground v.1.15,2013-01-16 07:44:00,
2013-01-16 00:50:00,12.8,10.7,30.63,SSW,193,2.0,7.0,91,0.00,,,0.00,0,Wunderground v.1.15,2013-01-16 07:50:00,
2013-01-16 00:56:00,12.8,10.4,30.63,SSW,193,3.0,7.0,90,0.00,,,0.00,0,Wunderground v.1.15,2013-01-16 07:56:00,
2013-01-16 01:02:00,10.9,7.8,30.62,SSW,193,5.0,9.0,87,0.00,,,0.00,0,Wunderground v.1.15,2013-01-16 08:02:00,
2013-01-16 01:08:00,8.7,5.1,30.63,SSW,193,6.0,9.0,85,0.00,,,0.00,0,Wunderground v.1.15,2013-01-16 08:08:00,
2013-01-16 01:14:00,9.7,6.9,30.63,SSW,193,6.0,11.0,88,0.00,,,0.00,0,Wunderground v.1.15,2013-01-16 08:14:00,
2013-01-16 01:20:00,11.6,9.5,30.63,SSW,193,6.0,6.0,91,0.00,,,0.00,0,Wunderground v.1.15,2013-01-16 08:20:00,
2013-01-16 01:26:00,12.7,10.6,30.63,SSW,193,2.0,7.0,91,0.00,,,0.00,0,Wunderground v.1.15,2013-01-16 08:26:00,
2013-01-16 01:32:00,11.8,9.2,30.63,SSW,193,4.0,7.0,89,0.00,,,0.00,0,Wunderground v.1.15,2013-01-16 08:32:00,
2013-01-16 01:38:00,13.0,10.9,30.61,SSW,193,3.0,7.0,91,0.00,,,0.00,0,Wunderground v.1.15,2013-01-16 08:38:00,
2013-01-16 01:44:00,14.1,12.0,30.62,SSW,193,2.0,7.0,91,0.00,,,0.00,0,Wunderground v.1.15,2013-01-16 08:44:00,
2013-01-16 01:50:00,14.4,12.3,30.61,SSW,195,2.0,7.0,91,0.00,,,0.00,0,Wunderground v.1.15,2013-01-16 08:50:00,
2013-01-16 01:56:00,14.9,12.7,30.61,SSW,195,4.0,9.0,91,0.00,,,0.00,0,Wunderground v.1.15,2013-01-16 08:56:00,
2013-01-16 02:02:00,14.9,12.5,30.61,SSW,195,7.0,8.0,90,0.00,,,0.00,0,Wunderground v.1.15,2013-01-16 09:02:00,
2013-01-16 02:08:00,12.5,8.8,30.62,NE,34,7.0,8.0,85,0.00,,,0.00,0,Wunderground v.1.15,2013-01-16 09:08:00,
2013-01-16 02:14:00,11.2,7.8,30.62,NE,34,5.0,9.0,86,0.00,,,0.00,0,Wunderground v.1.15,2013-01-16 09:14:00,
2013-01-16 02:20:00,9.6,6.0,30.62,NE,34,4.0,4.0,85,0.00,,,0.00,0,Wunderground v.1.15,2013-01-16 09:20:00,
2013-01-16 02:26:00,9.5,6.4,30.61,NE,39,5.0,11.0,87,0.00,,,0.00,0,Wunderground v.1.15,2013-01-16 09:26:00,
2013-01-16 02:32:00,10.5,7.9,30.61,NE,42,5.0,7.0,89,0.00,,,0.00,0,Wunderground v.1.15,2013-01-16 09:32:00,
2013-01-16 02:38:00,11.9,9.8,30.62,North,354,4.0,10.0,91,0.00,,,0.00,0,Wunderground v.1.15,2013-01-16 09:38:00,
2013-01-16 02:44:00,12.8,10.7,30.63,NNW,341,4.0,7.0,91,0.00,,,0.00,0,Wunderground v.1.15,2013-01-16 09:44:00,
2013-01-16 02:50:00,13.0,10.6,30.63,NNW,341,2.0,2.0,90,0.00,,,0.00,0,Wunderground v.1.15,2013-01-16 09:50:00,
2013-01-16 02:56:00,11.8,8.7,30.63,NNW,341,2.0,7.0,87,0.00,,,0.00,0,Wunderground v.1.15,2013-01-16 09:56:00,
2013-01-16 03:02:00,11.6,8.7,30.63,NNW,341,1.0,7.0,88,0.00,,,0.00,0,Wunderground v.1.15,2013-01-16 10:02:00,
2013-01-16 03:08:00,11.9,9.3,30.63,NNW,341,1.0,7.0,89,0.00,,,0.00,0,Wunderground v.1.15,2013-01-16 10:08:00,
2013-01-16 03:14:00,11.8,8.9,30.63,NNW,341,0.0,7.0,88,0.00,,,0.00,0,Wunderground v.1.15,2013-01-16 10:14:00,
2013-01-16 03:20:00,12.3,9.7,30.63,NNW,341,1.0,7.0,89,0.00,,,0.00,0,Wunderground v.1.15,2013-01-16 10:20:00,
2013-01-16 03:26:00,12.3,9.7,30.63,NNW,341,0.0,7.0,89,0.00,,,0.00,0,Wunderground v.1.15,2013-01-16 10:26:00,
2013-01-16 03:32:00,9.8,5.9,30.64,NNW,341,1.0,7.0,84,0.00,,,0.00,0,Wunderground v.1.15,2013-01-16 10:32:00,
2013-01-16 03:38:00,9.2,5.6,30.64,NNW,341,2.0,7.0,85,0.00,,,0.00,0,Wunderground v.1.15,2013-01-16 10:38:00,
2013-01-16 03:44:00,9.5,6.7,30.63,NNW,341,4.0,4.0,88,0.00,,,0.00,0,Wunderground v.1.15,2013-01-16 10:44:00,
2013-01-16 03:50:00,11.2,8.8,30.64,NNW,341,4.0,4.0,90,0.00,,,0.00,0,Wunderground v.1.15,2013-01-16 10:50:00,
2013-01-16 03:56:00,12.8,10.9,30.63,NNW,341,3.0,7.0,92,0.00,,,0.00,0,Wunderground v.1.15,2013-01-16 10:56:00,
2013-01-16 04:04:00,14.4,12.5,30.64,NNW,341,0.0,7.0,92,0.00,,,0.00,0,Wunderground v.1.15,2013-01-16 11:04:00,
2013-01-16 04:10:00,12.7,10.1,30.64,WNW,299,2.0,7.0,89,0.00,,,0.00,0,Wunderground v.1.15,2013-01-16 11:10:00,
2013-01-16 04:18:00,12.0,9.1,30.63,West,263,6.0,7.0,88,0.00,,,0.00,0,Wunderground v.1.15,2013-01-16 11:18:00,
2013-01-16 04:24:00,13.1,10.7,30.63,WSW,255,7.0,8.0,90,0.00,,,0.00,0,Wunderground v.1.15,2013-01-16 11:24:00,
2013-01-16 04:30:00,14.1,12.0,30.63,WSW,255,5.0,7.0,91,0.00,,,0.00,0,Wunderground v.1.15,2013-01-16 11:30:00,
2013-01-16 04:36:00,15.0,12.8,30.63,WSW,253,6.0,9.0,91,0.00,,,0.00,0,Wunderground v.1.15,2013-01-16 11:36:00,
2013-01-16 04:48:00,13.1,10.2,30.63,SW,222,7.0,7.0,88,0.00,,,0.00,0,Wunderground v.1.15,2013-01-16 11:48:00,
2013-01-16 04:54:00,11.8,8.7,30.63,SW,222,7.0,7.0,87,0.00,,,0.00,0,Wunderground v.1.15,2013-01-16 11:54:00,
2013-01-16 05:02:00,12.0,9.1,30.63,SW,222,6.0,8.0,88,0.00,,,0.00,0,Wunderground v.1.15,2013-01-16 12:02:00,
2013-01-16 05:10:00,11.6,8.5,30.63,SW,222,7.0,7.0,87,0.00,,,0.00,0,Wunderground v.1.15,2013-01-16 12:10:00,
2013-01-16 05:16:00,11.8,8.9,30.63,SW,222,6.0,7.0,88,0.00,,,0.00,0,Wunderground v.1.15,2013-01-16 12:16:00,
2013-01-16 05:22:00,13.0,10.6,30.62,SW,222,5.0,7.0,90,0.00,,,0.00,0,Wunderground v.1.15,2013-01-16 12:22:00,
2013-01-16 05:28:00,12.5,9.6,30.62,SW,222,7.0,8.0,88,0.00,,,0.00,0,Wunderground v.1.15,2013-01-16 12:28:00,
2013-01-16 05:34:00,12.6,9.7,30.62,SW,222,8.0,9.0,88,0.00,,,0.00,0,Wunderground v.1.15,2013-01-16 12:34:00,
2013-01-16 05:40:00,12.2,9.1,30.62,SW,222,9.0,9.0,87,0.00,,,0.00,0,Wunderground v.1.15,2013-01-16 12:40:00,
2013-01-16 05:46:00,11.9,8.8,30.61,SW,222,8.0,9.0,87,0.00,,,0.00,0,Wunderground v.1.15,2013-01-16 12:46:00,
2013-01-16 05:52:00,11.2,7.8,30.62,SW,222,7.0,10.0,86,0.00,,,0.00,0,Wunderground v.1.15,2013-01-16 12:52:00,
2013-01-16 05:58:00,10.8,7.4,30.62,SW,222,7.0,10.0,86,0.00,,,0.00,0,Wunderground v.1.15,2013-01-16 12:58:00,
2013-01-16 06:04:00,11.1,8.0,30.61,South,183,3.0,11.0,87,0.00,,,0.00,0,Wunderground v.1.15,2013-01-16 13:04:00,
2013-01-16 06:10:00,11.4,8.5,30.60,South,183,6.0,9.0,88,0.00,,,0.00,0,Wunderground v.1.15,2013-01-16 13:10:00,
2013-01-16 06:16:00,11.6,8.5,30.60,South,183,5.0,9.0,87,0.00,,,0.00,0,Wunderground v.1.15,2013-01-16 13:16:00,
2013-01-16 06:26:00,13.0,9.9,30.60,South,191,4.0,8.0,87,0.00,,,0.00,0,Wunderground v.1.15,2013-01-16 13:26:00,
2013-01-16 06:32:00,13.1,10.0,30.60,South,191,1.0,7.0,87,0.00,,,0.00,0,Wunderground v.1.15,2013-01-16 13:32:00,
2013-01-16 06:38:00,13.0,9.6,30.61,SSE,166,2.0,7.0,86,0.00,,,0.00,0,Wunderground v.1.15,2013-01-16 13:38:00,
2013-01-16 06:46:00,12.2,8.6,30.61,SSE,166,4.0,7.0,85,0.00,,,0.00,0,Wunderground v.1.15,2013-01-16 13:46:00,
2013-01-16 06:54:00,10.9,7.3,30.62,SSE,163,4.0,7.0,85,0.00,,,0.00,0,Wunderground v.1.15,2013-01-16 13:54:00,
2013-01-16 07:00:00,9.9,6.0,30.62,SSE,162,4.0,4.0,84,0.00,,,0.00,0,Wunderground v.1.15,2013-01-16 14:00:00,
2013-01-16 07:06:00,11.3,8.7,30.61,SSE,162,5.0,9.0,89,0.00,,,0.00,0,Wunderground v.1.15,2013-01-16 14:06:00,
2013-01-16 07:12:00,13.0,10.4,30.61,SSE,160,4.0,7.0,89,0.00,,,0.00,0,Wunderground v.1.15,2013-01-16 14:12:00,
2013-01-16 07:18:00,14.9,12.5,30.60,SSE,156,1.0,7.0,90,0.00,,,0.00,0,Wunderground v.1.15,2013-01-16 14:18:00,
2013-01-16 07:26:00,14.9,12.0,30.60,South,173,2.0,9.0,88,0.00,,,0.00,0,Wunderground v.1.15,2013-01-16 14:26:00,
2013-01-16 07:32:00,13.4,9.2,30.61,South,182,5.0,7.0,83,0.00,,,0.00,0,Wunderground v.1.15,2013-01-16 14:32:00,
2013-01-16 07:38:00,11.9,8.0,30.61,South,182,6.0,7.0,84,0.00,,,0.00,0,Wunderground v.1.15,2013-01-16 14:38:00,
2013-01-16 07:44:00,11.4,8.0,30.61,South,182,5.0,7.0,86,0.00,,,0.00,0,Wunderground v.1.15,2013-01-16 14:44:00,
2013-01-16 07:52:00,11.3,7.9,30.61,South,182,4.0,7.0,86,0.00,,,0.00,0,Wunderground v.1.15,2013-01-16 14:52:00,
2013-01-16 07:58:00,11.3,7.9,30.61,South,169,3.0,7.0,86,0.00,,,0.00,0,Wunderground v.1.15,2013-01-16 14:58:00,
2013-01-16 08:04:00,11.1,7.7,30.61,South,169,3.0,7.0,86,0.00,,,0.00,0,Wunderground v.1.15,2013-01-16 15:04:00,
2013-01-16 08:10:00,10.5,7.1,30.63,South,169,2.0,7.0,86,0.00,,,0.00,0,Wunderground v.1.15,2013-01-16 15:10:00,
2013-01-16 08:20:00,11.3,8.4,30.61,South,169,2.0,7.0,88,0.00,,,0.00,7,Wunderground v.1.15,2013-01-16 15:20:00,
2013-01-16 08:26:00,12.6,10.2,30.62,South,188,5.0,7.0,90,0.00,,,0.00,14,Wunderground v.1.15,2013-01-16 15:26:00,
2013-01-16 08:32:00,13.5,10.6,30.61,South,188,3.0,7.0,88,0.00,,,0.00,21,Wunderground v.1.15,2013-01-16 15:32:00,
2013-01-16 08:38:00,14.2,11.0,30.62,South,188,3.0,7.0,87,0.00,,,0.00,28,Wunderground v.1.15,2013-01-16 15:38:00,
2013-01-16 08:44:00,14.9,11.7,30.62,South,187,2.0,7.0,87,0.00,,,0.00,40,Wunderground v.1.15,2013-01-16 15:44:00,
2013-01-16 08:52:00,15.3,11.9,30.62,South,188,1.0,7.0,86,0.00,,,0.00,47,Wunderground v.1.15,2013-01-16 15:52:00,
2013-01-16 08:58:00,15.2,11.5,30.63,South,188,1.0,7.0,85,0.00,,,0.00,62,Wunderground v.1.15,2013-01-16 15:58:00,
2013-01-16 09:08:00,14.6,10.9,30.64,South,187,1.0,7.0,85,0.00,,,0.00,76,Wunderground v.1.15,2013-01-16 16:08:00,
2013-01-16 09:16:00,15.9,12.7,30.63,South,188,0.0,7.0,87,0.00,,,0.00,88,Wunderground v.1.15,2013-01-16 16:16:00,
2013-01-16 09:22:00,16.7,13.0,30.64,South,187,2.0,7.0,85,0.00,,,0.00,107,Wunderground v.1.15,2013-01-16 16:22:00,
2013-01-16 09:28:00,17.2,13.2,30.64,South,187,2.0,7.0,84,0.00,,,0.00,105,Wunderground v.1.15,2013-01-16 16:28:00,
2013-01-16 09:34:00,18.5,14.5,30.63,South,188,1.0,7.0,84,0.00,,,0.00,130,Wunderground v.1.15,2013-01-16 16:34:00,
2013-01-16 09:40:00,18.9,13.2,30.63,South,188,1.0,7.0,78,0.00,,,0.00,155,Wunderground v.1.15,2013-01-16 16:40:00,
2013-01-16 09:46:00,18.4,12.4,30.64,South,187,2.0,7.0,77,0.00,,,0.00,162,Wunderground v.1.15,2013-01-16 16:46:00,
2013-01-16 09:52:00,17.6,12.2,30.64,South,188,3.0,7.0,79,0.00,,,0.00,163,Wunderground v.1.15,2013-01-16 16:52:00,
2013-01-16 10:02:00,17.2,12.4,30.64,South,188,2.0,7.0,81,0.00,,,0.00,207,Wunderground v.1.15,2013-01-16 17:02:00,
2013-01-16 10:08:00,17.4,13.1,30.64,South,188,1.0,7.0,83,0.00,,,0.00,218,Wunderground v.1.15,2013-01-16 17:08:00,
2013-01-16 10:16:00,17.9,13.6,30.64,South,188,1.0,7.0,83,0.00,,,0.00,185,Wunderground v.1.15,2013-01-16 17:16:00,
2013-01-16 10:22:00,18.8,14.2,30.65,South,187,1.0,2.0,82,0.00,,,0.00,190,Wunderground v.1.15,2013-01-16 17:22:00,
2013-01-16 10:34:00,19.0,14.1,30.65,South,187,2.0,7.0,81,0.00,,,0.00,192,Wunderground v.1.15,2013-01-16 17:34:00,
2013-01-16 10:40:00,19.1,14.2,30.66,South,188,0.0,7.0,81,0.00,,,0.00,257,Wunderground v.1.15,2013-01-16 17:40:00,
2013-01-16 10:46:00,20.6,15.4,30.65,South,187,2.0,7.0,80,0.00,,,0.00,241,Wunderground v.1.15,2013-01-16 17:46:00,
2013-01-16 10:52:00,21.5,16.6,30.65,South,187,2.0,7.0,81,0.00,,,0.00,244,Wunderground v.1.15,2013-01-16 17:52:00,
2013-01-16 10:58:00,22.1,17.2,30.66,South,187,2.0,7.0,81,0.00,,,0.00,223,Wunderground v.1.15,2013-01-16 17:58:00,
2013-01-16 11:04:00,23.0,17.7,30.65,South,187,2.0,6.0,80,0.00,,,0.00,225,Wunderground v.1.15,2013-01-16 18:04:00,
2013-01-16 11:10:00,23.5,17.0,30.65,South,187,2.0,2.0,76,0.00,,,0.00,211,Wunderground v.1.15,2013-01-16 18:10:00,
2013-01-16 11:16:00,25.3,17.5,30.65,South,187,1.0,6.0,72,0.00,,,0.00,225,Wunderground v.1.15,2013-01-16 18:16:00,
2013-01-16 11:22:00,24.4,17.0,30.64,South,188,1.0,6.0,73,0.00,,,0.00,185,Wunderground v.1.15,2013-01-16 18:22:00,
2013-01-16 11:30:00,24.0,17.2,30.64,South,187,1.0,6.0,75,0.00,,,0.00,178,Wunderground v.1.15,2013-01-16 18:30:00,
2013-01-16 11:36:00,24.0,16.9,30.64,South,187,1.0,6.0,74,0.00,,,0.00,148,Wunderground v.1.15,2013-01-16 18:36:00,
2013-01-16 11:42:00,23.5,16.4,30.64,South,187,2.0,6.0,74,0.00,,,0.00,139,Wunderground v.1.15,2013-01-16 18:42:00,
2013-01-16 11:48:00,23.1,16.7,30.64,South,187,2.0,6.0,76,0.00,,,0.00,142,Wunderground v.1.15,2013-01-16 18:48:00,
2013-01-16 11:54:00,22.9,17.9,30.64,South,187,3.0,6.0,81,0.00,,,0.00,142,Wunderground v.1.15,2013-01-16 18:54:00,
2013-01-16 12:00:00,23.2,18.5,30.65,South,188,5.0,5.0,82,0.00,,,0.00,172,Wunderground v.1.15,2013-01-16 19:00:00,
2013-01-16 12:06:00,22.8,17.6,30.63,South,187,3.0,6.0,80,0.00,,,0.00,156,Wunderground v.1.15,2013-01-16 19:06:00,
2013-01-16 12:12:00,23.0,17.7,30.63,South,188,3.0,6.0,80,0.00,,,0.00,139,Wunderground v.1.15,2013-01-16 19:12:00,
2013-01-16 12:18:00,22.4,16.9,30.64,South,188,4.0,7.0,79,0.00,,,0.00,137,Wunderground v.1.15,2013-01-16 19:18:00,
2013-01-16 12:24:00,22.0,16.2,30.63,South,187,3.0,10.0,78,0.00,,,0.00,134,Wunderground v.1.15,2013-01-16 19:24:00,
2013-01-16 12:32:00,21.3,16.4,30.63,South,187,5.0,6.0,81,0.00,,,0.00,156,Wunderground v.1.15,2013-01-16 19:32:00,
2013-01-16 12:38:00,22.4,17.5,30.64,South,187,3.0,6.0,81,0.00,,,0.00,171,Wunderground v.1.15,2013-01-16 19:38:00,
2013-01-16 12:46:00,22.4,17.2,30.63,South,187,3.0,6.0,80,0.00,,,0.00,155,Wunderground v.1.15,2013-01-16 19:46:00,
2013-01-16 12:52:00,22.9,17.9,30.62,South,187,3.0,6.0,81,0.00,,,0.00,151,Wunderground v.1.15,2013-01-16 19:52:00,
2013-01-16 13:00:00,23.2,17.9,30.63,South,187,3.0,6.0,80,0.00,,,0.00,144,Wunderground v.1.15,2013-01-16 20:00:00,
2013-01-16 13:06:00,23.6,17.7,30.63,South,187,3.0,6.0,78,0.00,,,0.00,135,Wunderground v.1.15,2013-01-16 20:06:00,
2013-01-16 13:12:00,24.6,18.1,30.62,South,187,4.0,6.0,76,0.00,,,0.00,144,Wunderground v.1.15,2013-01-16 20:12:00,
2013-01-16 13:18:00,24.4,17.6,30.63,South,187,4.0,6.0,75,0.00,,,0.00,171,Wunderground v.1.15,2013-01-16 20:18:00,
2013-01-16 13:26:00,25.1,18.0,30.62,South,187,1.0,6.0,74,0.00,,,0.00,223,Wunderground v.1.15,2013-01-16 20:26:00,
2013-01-16 13:34:00,24.5,17.7,30.62,South,188,2.0,6.0,75,0.00,,,0.00,214,Wunderground v.1.15,2013-01-16 20:34:00,
2013-01-16 13:40:00,22.4,15.7,30.62,South,187,3.0,3.0,75,0.00,,,0.00,178,Wunderground v.1.15,2013-01-16 20:40:00,
2013-01-16 13:46:00,24.7,18.5,30.62,South,187,3.0,6.0,77,0.00,,,0.00,162,Wunderground v.1.15,2013-01-16 20:46:00,
2013-01-16 13:52:00,26.9,19.1,30.62,South,188,2.0,6.0,72,0.00,,,0.00,155,Wunderground v.1.15,2013-01-16 20:52:00,
2013-01-16 13:58:00,27.3,19.5,30.61,South,187,1.0,6.0,72,0.00,,,0.00,165,Wunderground v.1.15,2013-01-16 20:58:00,
2013-01-16 14:04:00,26.9,19.4,30.61,South,187,2.0,6.0,73,0.00,,,0.00,178,Wunderground v.1.15,2013-01-16 21:04:00,
2013-01-16 14:10:00,26.0,18.5,30.61,South,187,2.0,6.0,73,0.00,,,0.00,279,Wunderground v.1.15,2013-01-16 21:10:00,
2013-01-16 14:16:00,26.8,19.9,30.62,South,187,3.0,6.0,75,0.00,,,0.00,374,Wunderground v.1.15,2013-01-16 21:16:00,
2013-01-16 14:22:00,28.4,20.5,30.61,South,187,3.0,6.0,72,0.00,,,0.00,360,Wunderground v.1.15,2013-01-16 21:22:00,
2013-01-16 14:28:00,28.9,20.3,30.61,South,187,2.0,6.0,70,0.00,,,0.00,353,Wunderground v.1.15,2013-01-16 21:28:00,
2013-01-16 14:34:00,30.1,21.2,30.62,South,187,2.0,6.0,69,0.00,,,0.00,339,Wunderground v.1.15,2013-01-16 21:34:00,
2013-01-16 14:40:00,31.1,21.4,30.62,South,187,1.0,6.0,67,0.00,,,0.00,332,Wunderground v.1.15,2013-01-16 21:40:00,
2013-01-16 14:46:00,32.0,21.6,30.62,South,187,2.0,6.0,65,0.00,,,0.00,313,Wunderground v.1.15,2013-01-16 21:46:00,
2013-01-16 14:52:00,31.5,21.1,30.62,South,187,3.0,6.0,65,0.00,,,0.00,301,Wunderground v.1.15,2013-01-16 21:52:00,
2013-01-16 14:58:00,30.6,20.9,30.62,South,187,4.0,6.0,67,0.00,,,0.00,294,Wunderground v.1.15,2013-01-16 21:58:00,
2013-01-16 15:04:00,30.6,21.3,30.62,South,187,3.0,7.0,68,0.00,,,0.00,279,Wunderground v.1.15,2013-01-16 22:04:00,
2013-01-16 15:10:00,31.2,21.9,30.62,South,187,3.0,3.0,68,0.00,,,0.00,269,Wunderground v.1.15,2013-01-16 22:10:00,
2013-01-16 15:16:00,30.1,21.2,30.63,South,187,2.0,7.0,69,0.00,,,0.00,253,Wunderground v.1.15,2013-01-16 22:16:00,
2013-01-16 15:22:00,29.3,20.0,30.63,South,187,1.0,7.0,68,0.00,,,0.00,237,Wunderground v.1.15,2013-01-16 22:22:00,
2013-01-16 15:28:00,29.1,20.9,30.62,South,187,3.0,7.0,71,0.00,,,0.01,221,Wunderground v.1.15,2013-01-16 22:28:00,
2013-01-16 15:34:00,29.8,20.5,30.63,South,187,4.0,7.0,68,0.00,,,0.01,206,Wunderground v.1.15,2013-01-16 22:34:00,
2013-01-16 15:40:00,30.0,20.4,30.63,South,187,4.0,7.0,67,0.00,,,0.01,190,Wunderground v.1.15,2013-01-16 22:40:00,
2013-01-16 15:46:00,31.2,21.2,30.63,South,187,5.0,7.0,66,0.00,,,0.01,172,Wunderground v.1.15,2013-01-16 22:46:00,
2013-01-16 15:54:00,32.0,21.2,30.63,South,187,3.0,7.0,64,0.00,,,0.01,149,Wunderground v.1.15,2013-01-16 22:54:00,
2013-01-16 16:00:00,31.7,20.9,30.64,South,187,4.0,4.0,64,0.00,,,0.01,132,Wunderground v.1.15,2013-01-16 23:00:00,
2013-01-16 16:06:00,31.5,20.3,30.64,South,187,4.0,7.0,63,0.00,,,0.01,116,Wunderground v.1.15,2013-01-16 23:06:00,
2013-01-16 16:12:00,31.2,21.5,30.64,South,187,4.0,7.0,67,0.00,,,0.01,100,Wunderground v.1.15,2013-01-16 23:12:00,
2013-01-16 16:18:00,31.8,21.4,30.64,South,188,3.0,7.0,65,0.00,,,0.01,86,Wunderground v.1.15,2013-01-16 23:18:00,
2013-01-16 16:24:00,31.1,21.1,30.64,South,187,3.0,7.0,66,0.00,,,0.01,70,Wunderground v.1.15,2013-01-16 23:24:00,
2013-01-16 16:30:00,30.5,20.8,30.63,South,187,2.0,2.0,67,0.00,,,0.01,56,Wunderground v.1.15,2013-01-16 23:30:00,
2013-01-16 16:36:00,29.8,20.9,30.64,South,187,2.0,7.0,69,0.00,,,0.01,44,Wunderground v.1.15,2013-01-16 23:36:00,
2013-01-16 16:44:00,29.7,21.1,30.64,South,187,1.0,7.0,70,0.00,,,0.01,30,Wunderground v.1.15,2013-01-16 23:44:00,
2013-01-16 16:50:00,28.6,19.0,30.64,South,187,3.0,7.0,67,0.00,,,0.01,19,Wunderground v.1.15,2013-01-16 23:50:00,
2013-01-16 16:56:00,28.3,20.7,30.64,South,188,2.0,7.0,73,0.00,,,0.01,12,Wunderground v.1.15,2013-01-16 23:56:00,
2013-01-16 17:02:00,28.6,20.7,30.64,South,187,0.0,2.0,72,0.00,,,0.01,9,Wunderground v.1.15,2013-01-17 00:02:00,
2013-01-16 17:08:00,28.8,20.2,30.64,South,187,1.0,7.0,70,0.00,,,0.01,7,Wunderground v.1.15,2013-01-17 00:08:00,
2013-01-16 17:14:00,28.6,20.4,30.64,South,187,2.0,7.0,71,0.00,,,0.01,5,Wunderground v.1.15,2013-01-17 00:14:00,
2013-01-16 17:20:00,28.3,19.8,30.64,South,187,2.0,7.0,70,0.00,,,0.01,0,Wunderground v.1.15,2013-01-17 00:20:00,
2013-01-16 17:26:00,28.1,19.6,30.64,South,187,1.0,7.0,70,0.00,,,0.01,0,Wunderground v.1.15,2013-01-17 00:26:00,
2013-01-16 17:32:00,26.5,19.0,30.64,South,187,3.0,7.0,73,0.00,,,0.01,0,Wunderground v.1.15,2013-01-17 00:32:00,
2013-01-16 17:38:00,25.9,18.4,30.64,South,187,4.0,7.0,73,0.00,,,0.01,0,Wunderground v.1.15,2013-01-17 00:38:00,
2013-01-16 17:44:00,25.5,18.4,30.65,South,188,4.0,8.0,74,0.00,,,0.01,0,Wunderground v.1.15,2013-01-17 00:44:00,
2013-01-16 17:50:00,25.4,18.9,30.64,South,187,5.0,5.0,76,0.00,,,0.01,0,Wunderground v.1.15,2013-01-17 00:50:00,
2013-01-16 17:56:00,24.4,17.6,30.64,South,187,4.0,7.0,75,0.00,,,0.01,0,Wunderground v.1.15,2013-01-17 00:56:00,
2013-01-16 18:02:00,23.6,16.5,30.65,South,187,3.0,7.0,74,0.00,,,0.01,0,Wunderground v.1.15,2013-01-17 01:02:00,
2013-01-16 18:08:00,23.2,16.8,30.65,South,187,2.0,7.0,76,0.00,,,0.01,0,Wunderground v.1.15,2013-01-17 01:08:00,
2013-01-16 18:14:00,22.5,16.4,30.64,South,188,3.0,7.0,77,0.00,,,0.01,0,Wunderground v.1.15,2013-01-17 01:14:00,
2013-01-16 18:20:00,22.2,17.0,30.65,South,187,4.0,7.0,80,0.00,,,0.01,0,Wunderground v.1.15,2013-01-17 01:20:00,
2013-01-16 18:26:00,22.7,16.9,30.65,South,187,4.0,7.0,78,0.00,,,0.01,0,Wunderground v.1.15,2013-01-17 01:26:00,
2013-01-16 18:32:00,22.9,17.9,30.66,South,187,3.0,7.0,81,0.00,,,0.01,0,Wunderground v.1.15,2013-01-17 01:32:00,
2013-01-16 18:38:00,23.6,18.6,30.66,South,187,2.0,7.0,81,0.00,,,0.01,0,Wunderground v.1.15,2013-01-17 01:38:00,
2013-01-16 18:44:00,23.2,17.7,30.67,South,187,2.0,7.0,79,0.00,,,0.01,0,Wunderground v.1.15,2013-01-17 01:44:00,
2013-01-16 18:50:00,23.4,17.8,30.67,South,187,3.0,7.0,79,0.00,,,0.01,0,Wunderground v.1.15,2013-01-17 01:50:00,
2013-01-16 18:56:00,23.0,16.6,30.67,South,187,4.0,7.0,76,0.00,,,0.01,0,Wunderground v.1.15,2013-01-17 01:56:00,
2013-01-16 19:02:00,22.7,17.5,30.67,South,187,5.0,7.0,80,0.00,,,0.01,0,Wunderground v.1.15,2013-01-17 02:02:00,
2013-01-16 19:08:00,23.0,18.0,30.67,South,187,5.0,7.0,81,0.00,,,0.01,0,Wunderground v.1.15,2013-01-17 02:08:00,
2013-01-16 19:14:00,22.3,16.5,30.66,South,188,5.0,7.0,78,0.00,,,0.01,0,Wunderground v.1.15,2013-01-17 02:14:00,
2013-01-16 19:20:00,22.8,17.6,30.67,South,187,3.0,3.0,80,0.00,,,0.01,0,Wunderground v.1.15,2013-01-17 02:20:00,
2013-01-16 19:26:00,24.1,18.5,30.67,South,187,2.0,7.0,79,0.00,,,0.01,0,Wunderground v.1.15,2013-01-17 02:26:00,
2013-01-16 19:32:00,23.5,17.3,30.67,South,187,4.0,10.0,77,0.00,,,0.01,0,Wunderground v.1.15,2013-01-17 02:32:00,
2013-01-16 19:38:00,22.9,17.4,30.67,South,187,8.0,10.0,79,0.00,,,0.01,0,Wunderground v.1.15,2013-01-17 02:38:00,
2013-01-16 19:46:00,21.9,16.4,30.67,South,188,7.0,8.0,79,0.00,,,0.01,0,Wunderground v.1.15,2013-01-17 02:46:00,
2013-01-16 19:52:00,20.3,13.9,30.67,South,188,7.0,7.0,76,0.00,,,0.01,0,Wunderground v.1.15,2013-01-17 02:52:00,
2013-01-16 19:58:00,20.2,15.0,30.68,South,187,7.0,9.0,80,0.00,,,0.01,0,Wunderground v.1.15,2013-01-17 02:58:00,
2013-01-16 20:04:00,19.9,14.7,30.68,South,187,8.0,11.0,80,0.00,,,0.01,0,Wunderground v.1.15,2013-01-17 03:04:00,
2013-01-16 20:12:00,21.3,16.7,30.68,South,187,6.0,11.0,82,0.00,,,0.01,0,Wunderground v.1.15,2013-01-17 03:12:00,
2013-01-16 20:18:00,22.3,17.1,30.68,South,187,6.0,11.0,80,0.00,,,0.01,0,Wunderground v.1.15,2013-01-17 03:18:00,
2013-01-16 20:28:00,23.2,17.1,30.68,South,187,2.0,11.0,77,0.00,,,0.01,0,Wunderground v.1.15,2013-01-17 03:28:00,
2013-01-16 20:34:00,22.9,16.8,30.67,South,188,1.0,11.0,77,0.00,,,0.01,0,Wunderground v.1.15,2013-01-17 03:34:00,
2013-01-16 20:40:00,22.6,16.5,30.68,South,187,2.0,2.0,77,0.00,,,0.01,0,Wunderground v.1.15,2013-01-17 03:40:00,
2013-01-16 20:46:00,22.4,16.9,30.68,South,188,2.0,11.0,79,0.00,,,0.01,0,Wunderground v.1.15,2013-01-17 03:46:00,
2013-01-16 20:52:00,22.2,16.1,30.67,South,187,2.0,11.0,77,0.00,,,0.01,0,Wunderground v.1.15,2013-01-17 03:52:00,
2013-01-16 20:58:00,21.5,15.4,30.67,South,187,2.0,11.0,77,0.00,,,0.01,0,Wunderground v.1.15,2013-01-17 03:58:00,
2013-01-16 21:04:00,20.2,13.5,30.67,South,187,2.0,11.0,75,0.00,,,0.01,0,Wunderground v.1.15,2013-01-17 04:04:00,
2013-01-16 21:10:00,19.0,14.7,30.67,South,188,4.0,4.0,83,0.00,,,0.01,0,Wunderground v.1.15,2013-01-17 04:10:00,
2013-01-16 21:16:00,18.9,14.3,30.67,South,188,3.0,11.0,82,0.00,,,0.01,0,Wunderground v.1.15,2013-01-17 04:16:00,
2013-01-16 21:22:00,18.6,13.7,30.68,South,188,2.0,11.0,81,0.00,,,0.01,0,Wunderground v.1.15,2013-01-17 04:22:00,
2013-01-16 21:30:00,19.8,15.2,30.67,South,187,1.0,11.0,82,0.00,,,0.01,0,Wunderground v.1.15,2013-01-17 04:30:00,
2013-01-16 21:36:00,20.1,15.8,30.67,South,187,2.0,11.0,83,0.00,,,0.01,0,Wunderground v.1.15,2013-01-17 04:36:00,
2013-01-16 21:42:00,19.4,14.2,30.68,South,188,2.0,3.0,80,0.00,,,0.01,0,Wunderground v.1.15,2013-01-17 04:42:00,
2013-01-16 21:48:00,20.2,16.1,30.67,South,187,2.0,11.0,84,0.00,,,0.01,0,Wunderground v.1.15,2013-01-17 04:48:00,
2013-01-16 21:54:00,20.9,17.1,30.67,South,187,1.0,11.0,85,0.00,,,0.01,0,Wunderground v.1.15,2013-01-17 04:54:00,
2013-01-16 22:00:00,20.0,15.1,30.67,South,188,1.0,11.0,81,0.00,,,0.01,0,Wunderground v.1.15,2013-01-17 05:00:00,
2013-01-16 22:04:00,18.6,12.0,30.67,South,188,2.0,11.0,75,0.00,,,0.01,0,Wunderground v.1.15,2013-01-17 05:04:00,
2013-01-16 22:06:00,17.9,11.6,30.66,South,187,2.0,11.0,76,0.00,,,0.01,0,Wunderground v.1.15,2013-01-17 05:06:00,
2013-01-16 22:08:00,17.7,12.9,30.66,South,187,2.0,11.0,81,0.00,,,0.01,0,Wunderground v.1.15,2013-01-17 05:08:00,
2013-01-16 22:14:00,16.9,12.6,30.66,South,187,4.0,11.0,83,0.00,,,0.01,0,Wunderground v.1.15,2013-01-17 05:14:00,
2013-01-16 22:20:00,18.4,15.2,30.66,South,188,5.0,5.0,87,0.00,,,0.01,0,Wunderground v.1.15,2013-01-17 05:20:00,
2013-01-16 22:26:00,18.2,13.6,30.66,South,188,3.0,11.0,82,0.00,,,0.01,0,Wunderground v.1.15,2013-01-17 05:26:00,
2013-01-16 22:36:00,16.6,12.3,30.66,South,187,2.0,11.0,83,0.00,,,0.01,0,Wunderground v.1.15,2013-01-17 05:36:00,
2013-01-16 22:42:00,16.9,13.4,30.66,South,188,2.0,11.0,86,0.00,,,0.01,0,Wunderground v.1.15,2013-01-17 05:42:00,
2013-01-16 22:48:00,17.4,14.2,30.66,South,188,1.0,11.0,87,0.00,,,0.01,0,Wunderground v.1.15,2013-01-17 05:48:00,
2013-01-16 22:54:00,19.1,16.4,30.65,South,187,2.0,11.0,89,0.00,,,0.01,0,Wunderground v.1.15,2013-01-17 05:54:00,
2013-01-16 23:00:00,19.3,16.3,30.66,South,187,2.0,11.0,88,0.00,,,0.01,0,Wunderground v.1.15,2013-01-17 06:00:00,
2013-01-16 23:06:00,19.9,16.1,30.66,South,187,0.0,11.0,85,0.00,,,0.01,0,Wunderground v.1.15,2013-01-17 06:06:00,
2013-01-16 23:12:00,20.0,15.9,30.65,South,187,1.0,11.0,84,0.00,,,0.01,0,Wunderground v.1.15,2013-01-17 06:12:00,
2013-01-16 23:18:00,20.2,15.9,30.66,South,187,0.0,11.0,83,0.00,,,0.01,0,Wunderground v.1.15,2013-01-17 06:18:00,
2013-01-16 23:24:00,19.8,14.6,30.66,South,188,1.0,11.0,80,0.00,,,0.01,0,Wunderground v.1.15,2013-01-17 06:24:00,
2013-01-16 23:30:00,18.6,12.3,30.66,South,188,2.0,11.0,76,0.00,,,0.01,0,Wunderground v.1.15,2013-01-17 06:30:00,
2013-01-16 23:40:00,18.0,13.4,30.66,South,188,1.0,11.0,82,0.00,,,0.01,0,Wunderground v.1.15,2013-01-17 06:40:00,
2013-01-16 23:48:00,16.8,11.4,30.66,South,188,2.0,11.0,79,0.00,,,0.01,0,Wunderground v.1.15,2013-01-17 06:48:00,
2013-01-16 23:54:00,16.1,12.1,30.66,South,187,2.0,11.0,84,0.00,,,0.01,0,Wunderground v.1.15,2013-01-17 06:54:00,